GFSSW_925_thetae_000.txt.gz
Theta_e
307 306 307 308 308 309 310 309 310 312 318 322 322 322 319 319 318 322 327 325 327 325 325 333 333 337 339 343 345 347 347 342 342 344 346 345 345 343 342 346 347 348 348 349 348
304 305 305 307 308 307 308 310 310 310 319 322 322 322 320 318 320 326 325 327 323 321 329 330 333 334 339 342 340 339 338 340 339 341 347 346 346 347 348 349 348 346 348 348 348
303 304 304 305 307 307 306 309 310 310 318 319 320 320 319 316 329 326 324 325 324 320 326 330 332 336 340 339 337 337 336 337 341 342 347 345 351 351 355 351 349 349 351 349 348
303 303 304 304 305 307 306 306 309 310 317 316 317 318 316 323 330 328 326 325 323 321 328 332 331 336 340 336 335 337 340 339 338 343 342 341 346 346 347 350 350 348 348 348 349
303 304 304 304 305 306 306 306 307 312 316 311 310 314 319 327 327 327 322 323 321 323 328 332 330 338 338 334 333 339 340 339 341 342 340 343 347 353 345 350 347 346 348 349 348
303 304 304 304 305 305 306 306 307 314 315 312 310 311 323 328 326 326 323 323 324 326 329 330 331 337 336 334 334 339 340 339 340 338 341 344 348 349 352 349 348 348 349 348 348
303 303 304 304 304 305 306 306 307 318 314 312 309 318 328 325 327 328 326 322 324 327 329 329 332 336 334 333 338 339 339 339 338 341 342 340 349 353 351 351 351 351 350 349 348
302 303 303 303 304 305 306 307 307 320 315 312 311 324 331 328 327 329 327 324 323 326 328 329 335 334 333 334 336 338 340 340 342 343 339 343 353 353 351 353 354 353 352 352 352
302 303 303 303 304 305 306 308 310 321 316 315 324 329 335 325 326 330 327 324 324 326 327 330 335 332 333 333 340 338 341 342 344 342 341 343 350 352 350 351 352 353 353 353 353
302 303 303 304 304 305 306 309 322 322 328 325 327 333 335 334 326 329 328 324 327 327 328 333 334 332 332 334 340 339 342 344 345 343 344 345 347 349 347 349 350 351 351 352 352
302 303 303 304 305 305 306 316 334 338 333 335 331 328 331 332 329 327 327 325 326 327 331 334 332 331 331 334 336 339 339 343 342 345 347 345 345 348 345 347 350 351 350 350 348
302 302 303 304 305 306 307 320 328 328 331 330 332 332 330 328 328 326 326 326 326 328 330 332 331 331 332 334 334 335 336 337 340 341 343 348 348 347 345 345 348 350 350 349 349
303 303 303 304 306 311 319 325 325 325 331 330 329 329 331 330 328 326 326 326 326 329 331 331 331 331 332 332 332 334 333 334 339 340 339 341 349 348 346 345 345 346 348 348 348
303 303 303 303 312 314 319 324 327 326 331 328 328 329 329 329 329 327 327 327 327 329 330 330 331 332 332 331 331 331 331 332 333 337 339 340 344 351 348 346 346 345 346 347 347
303 303 304 303 310 315 318 319 322 326 332 329 328 329 329 330 328 327 327 326 328 329 329 329 330 331 331 332 331 331 332 331 332 332 333 336 341 350 349 348 345 345 345 345 345
302 303 304 309 313 316 318 320 322 333 330 329 329 328 329 329 328 328 327 327 328 328 329 329 330 329 329 330 330 331 334 333 332 332 336 335 341 348 352 355 345 343 344 345 345
303 302 304 307 312 314 314 320 329 334 328 328 328 328 329 329 327 328 327 326 327 329 328 328 329 331 331 330 331 332 335 337 337 337 337 335 338 346 345 345 348 349 349 345 346
303 303 305 308 308 312 317 322 331 332 331 329 329 329 328 329 326 327 327 326 327 328 328 328 329 331 331 331 332 332 334 336 343 339 338 338 341 345 338 343 350 349 350 345 345
304 312 313 319 317 315 319 326 329 329 331 328 330 328 328 329 326 327 327 326 328 328 331 330 332 332 331 332 333 333 335 334 335 334 334 336 337 336 336 336 334 338 336 346 345
309 313 315 316 320 318 319 323 326 326 328 331 331 330 328 327 326 328 327 327 328 329 331 332 335 332 331 332 332 333 334 333 334 339 339 335 335 337 343 337 336 334 335 339 347
314 322 319 317 322 319 319 323 325 325 328 331 333 333 328 328 327 328 328 328 328 330 331 332 335 333 332 331 331 332 334 333 333 333 336 337 338 341 344 339 335 335 336 336 339
314 318 320 322 325 322 320 323 323 325 329 330 330 331 333 333 328 328 329 330 329 330 330 332 332 335 333 332 332 332 333 335 337 340 339 340 336 336 336 334 334 335 335 337 340
316 319 320 323 323 322 322 324 325 325 328 330 329 330 331 333 332 328 328 330 331 331 333 332 333 334 334 333 332 332 333 332 333 335 343 339 338 340 334 335 336 336 337 346 348
316 320 319 323 323 323 323 326 326 325 327 330 329 329 329 332 333 331 329 329 330 331 337 335 330 335 331 335 334 334 331 331 332 338 338 337 339 338 338 339 344 340 341 342 351
319 320 324 327 322 323 324 327 330 326 327 330 330 329 331 333 332 331 330 329 329 337 331 331 339 331 330 330 331 332 332 331 332 335 337 338 340 341 342 340 338 337 337 339 346
319 317 319 321 325 330 323 328 332 330 328 329 329 329 329 332 337 341 339 337 332 330 330 330 335 331 331 331 330 330 330 333 332 331 331 333 338 339 340 340 337 334 335 339 341
314 311 316 320 323 326 328 329 330 330 329 329 330 332 332 335 337 337 335 335 336 336 334 337 333 338 335 332 333 334 332 331 332 334 333 337 340 341 340 336 334 335 336 340 341

GFSSW_925_thetae_003.txt.gz
Theta_e
305 305 306 307 308 308 308 308 310 311 312 318 318 319 321 321 320 321 326 322 326 325 324 324 328 334 336 339 340 344 349 348 352 348 343 339 341 341 342 347 349 348 351 349 351
304 304 305 306 307 307 307 308 308 310 311 318 315 320 320 318 318 323 322 323 324 325 325 325 328 330 330 335 339 346 350 341 345 344 348 348 349 349 347 349 350 351 348 348 348
304 304 304 305 306 306 306 307 307 308 310 316 311 317 318 316 328 325 325 322 323 326 322 323 326 329 331 333 336 346 345 342 342 343 345 346 350 349 354 347 350 352 349 346 350
303 304 304 304 305 306 306 306 307 307 310 316 311 310 315 321 326 326 326 324 323 325 321 325 329 329 329 333 334 338 338 343 344 346 345 348 344 342 351 346 349 349 348 347 347
303 304 304 304 304 305 306 306 306 307 311 316 312 309 317 326 324 324 325 326 324 322 323 326 330 329 329 335 332 336 336 339 338 340 344 346 346 345 342 342 348 348 348 348 347
302 303 304 304 304 305 306 306 306 307 314 315 311 309 320 324 321 324 325 324 323 321 324 326 329 327 329 333 331 337 335 339 337 339 344 347 344 345 343 344 348 348 349 348 347
302 302 303 304 304 304 305 306 306 307 314 314 310 317 325 321 325 326 323 322 323 322 323 327 330 326 327 331 335 337 336 336 337 339 346 346 350 353 348 346 347 348 347 347 347
302 302 303 303 304 305 305 306 306 308 316 315 312 323 325 320 325 324 324 322 322 324 326 328 329 325 331 329 334 336 335 335 337 337 343 347 355 352 348 348 349 348 348 348 347
303 302 303 303 304 305 306 306 308 314 320 314 321 325 335 331 329 327 328 324 321 322 324 327 326 328 331 329 330 334 337 340 341 335 336 344 355 351 349 351 352 351 350 350 350
303 302 303 303 304 305 306 307 313 327 324 325 325 328 330 335 327 327 329 326 322 321 323 324 327 331 328 327 330 336 337 341 342 337 336 343 352 351 350 351 352 352 353 353 352
304 303 302 303 305 305 306 307 324 333 332 335 330 329 328 331 329 325 327 327 321 321 322 324 330 331 329 327 328 335 336 343 343 338 339 343 351 351 348 348 348 349 350 351 351
304 303 302 303 305 305 308 315 319 324 324 326 328 333 332 331 329 327 328 325 321 323 323 326 331 332 332 330 331 331 342 343 342 340 341 341 348 347 345 347 348 350 349 350 348
305 303 302 302 305 311 315 319 323 323 325 327 328 329 327 329 328 324 324 324 321 322 323 326 332 333 332 329 331 330 332 340 344 344 342 344 345 348 345 343 346 349 348 348 349
305 304 303 302 311 311 311 318 320 321 324 327 327 328 327 328 327 326 324 323 323 322 324 327 330 331 329 329 330 328 330 331 339 344 345 344 351 347 344 341 345 349 348 346 348
304 304 303 304 307 313 313 316 320 321 334 330 327 327 326 327 327 325 325 323 322 324 324 328 329 329 329 329 330 328 329 329 329 337 335 340 337 346 342 342 343 344 348 346 346
304 303 304 306 309 309 312 313 319 325 337 330 326 327 327 326 328 327 324 323 324 324 325 327 328 327 328 330 330 331 329 328 327 326 329 332 336 350 346 344 343 343 344 345 346
303 303 304 306 308 310 308 315 326 329 328 329 325 326 325 327 328 327 324 323 322 321 324 327 327 326 327 327 328 329 326 333 332 331 331 329 331 346 345 343 341 341 339 341 344
303 303 306 307 306 308 314 317 328 328 327 327 327 326 326 327 328 327 324 323 322 322 324 326 326 326 327 325 325 327 326 335 339 336 335 332 336 339 345 344 341 341 339 339 343
306 309 311 312 315 312 316 319 324 326 326 327 329 329 327 328 328 325 325 324 323 322 322 325 327 328 328 329 328 329 331 329 331 334 333 334 338 340 344 343 343 344 340 337 339
308 312 315 313 317 315 318 319 323 324 324 325 325 327 331 327 327 324 324 325 325 324 324 325 328 327 329 328 328 329 330 330 328 333 337 334 341 339 338 339 342 344 340 340 338
310 319 319 315 320 319 316 317 320 321 322 323 324 325 331 332 327 324 324 326 325 324 325 325 325 329 328 327 328 330 330 330 329 329 330 334 338 342 340 336 333 331 332 336 341
312 316 318 320 323 321 317 317 317 321 323 324 324 326 330 332 333 326 324 326 326 325 324 325 327 330 329 329 329 328 328 333 333 334 335 335 339 336 337 334 334 337 336 334 337
311 314 315 322 324 323 322 319 319 320 322 324 324 327 328 329 331 332 333 328 326 325 324 326 327 329 335 329 328 328 328 329 331 329 333 339 337 338 333 333 335 334 336 337 336
313 321 319 318 322 322 322 323 322 322 323 324 325 329 330 329 328 330 332 332 328 326 336 331 327 331 330 334 330 329 330 330 327 328 330 334 338 336 337 341 337 337 336 341 341
315 319 318 321 321 318 323 326 322 324 325 327 324 329 329 329 330 331 331 336 334 334 334 329 332 331 329 329 329 332 332 330 329 328 332 332 341 336 335 336 335 334 335 337 345
319 315 313 312 317 321 323 326 327 323 328 332 329 329 329 331 336 339 337 338 339 330 330 328 335 332 332 331 329 329 331 332 332 330 329 329 331 336 334 336 338 334 334 336 338
311 314 312 312 314 316 322 320 326 323 327 330 329 331 331 335 333 332 331 332 331 335 333 332 334 332 331 332 332 332 333 331 331 331 330 330 334 338 338 339 336 333 333 336 336

GFSSW_925_thetae_006.txt.gz
Theta_e
305 304 304 305 306 307 308 308 308 309 308 309 316 311 318 320 319 320 320 321 321 322 325 323 325 327 333 335 340 341 346 348 348 344 344 337 345 348 348 357 352 351 353 353 352
304 304 304 304 305 306 306 307 307 308 308 309 316 311 314 317 319 321 321 321 321 321 326 326 323 325 326 332 335 342 345 346 344 343 343 341 343 345 352 354 354 354 351 354 354
303 304 304 304 304 304 305 306 307 307 308 309 316 312 311 315 325 322 324 324 321 323 325 323 322 324 326 327 332 340 344 344 342 344 345 348 350 349 351 355 353 353 351 355 354
302 303 303 304 304 304 305 305 306 306 307 309 317 312 310 319 315 325 325 325 322 324 324 323 324 327 328 328 330 343 342 343 342 347 343 348 344 341 349 351 350 349 350 353 353
302 302 303 303 304 304 304 305 306 306 306 308 316 311 316 324 320 319 321 323 322 323 323 322 325 329 330 328 330 339 341 342 343 341 342 343 342 344 350 349 347 346 348 350 352
302 302 303 303 304 304 304 305 305 306 307 308 315 309 319 317 318 320 321 324 324 323 321 321 325 327 327 325 329 339 343 344 344 344 343 341 342 341 351 349 348 347 347 347 347
303 303 303 303 303 304 304 305 306 306 308 310 313 317 324 316 321 324 325 324 324 323 319 322 323 326 325 324 327 340 343 342 344 344 348 349 352 350 346 349 349 349 348 347 346
303 303 303 303 303 304 304 306 306 308 311 316 312 322 319 321 327 321 321 322 322 323 322 321 324 324 323 324 327 334 333 336 338 345 347 346 357 348 348 349 349 350 349 348 346
303 302 302 302 303 304 305 306 307 315 322 314 320 323 325 329 330 326 324 322 321 322 322 321 323 322 324 328 324 328 333 339 339 339 345 348 354 348 345 347 348 348 348 348 346
304 302 302 302 303 303 304 307 312 326 321 324 325 324 322 329 330 328 326 326 319 319 320 320 320 325 324 324 327 332 337 339 339 336 342 350 352 350 347 347 348 347 347 347 347
303 303 302 302 302 303 304 307 313 321 331 329 326 325 325 327 331 326 327 325 320 318 318 320 321 323 327 326 327 330 338 340 339 334 350 351 352 352 349 350 350 349 350 349 348
303 303 303 302 303 303 309 309 313 318 319 323 328 328 328 328 331 330 325 325 319 317 319 320 323 325 329 330 329 328 335 340 340 336 337 351 354 351 351 352 351 351 352 351 351
304 304 303 302 303 313 308 311 315 315 319 321 322 324 324 325 329 328 320 322 320 319 320 320 322 328 331 331 331 327 337 338 340 340 340 349 351 350 351 350 348 349 351 350 352
304 304 303 302 307 306 309 312 314 314 319 322 323 323 324 325 326 327 323 323 319 319 320 320 323 326 331 331 330 325 328 338 342 342 344 342 353 346 347 346 344 347 348 350 351
304 303 303 303 305 310 309 311 310 318 330 326 326 326 322 324 325 322 324 320 321 320 319 321 324 325 327 330 328 326 327 327 342 341 338 345 345 348 340 340 339 344 348 348 350
304 303 305 305 305 305 307 306 316 321 330 330 325 324 324 324 325 324 321 320 321 321 320 321 324 325 327 328 326 327 328 324 326 327 335 340 338 339 344 343 340 339 348 346 348
303 302 305 305 306 308 308 310 319 324 324 327 322 323 322 323 325 325 320 319 320 320 320 322 323 324 326 324 324 326 321 323 325 325 325 322 342 339 342 341 338 339 348 346 347
303 303 305 306 305 306 307 311 324 324 322 323 323 324 324 324 323 326 321 320 318 319 318 320 322 324 324 323 323 322 321 323 328 332 328 325 329 329 340 341 337 339 346 346 346
303 305 308 308 309 309 309 312 317 321 324 324 322 323 324 324 325 325 321 321 321 317 320 320 321 324 323 325 322 323 324 323 327 328 330 329 331 338 339 340 338 337 340 342 345
306 308 310 312 311 310 310 311 315 319 320 321 322 323 323 323 323 324 324 321 322 320 317 318 320 322 324 324 324 324 323 327 323 329 331 330 334 335 344 342 340 339 337 337 342
307 309 312 314 312 309 309 310 314 314 315 320 321 321 321 322 323 324 325 323 322 322 317 318 320 322 324 323 324 327 327 324 323 325 328 329 330 331 342 341 342 340 339 335 339
305 308 314 314 316 313 313 313 313 313 314 316 319 320 321 323 323 325 324 323 323 323 321 318 317 321 322 323 323 325 325 324 326 327 325 326 331 334 334 334 339 340 340 335 335
304 306 309 311 317 317 317 318 316 315 313 315 318 320 321 323 325 327 328 329 324 324 323 321 317 322 322 322 324 326 325 327 322 322 327 330 332 333 330 331 330 330 330 331 334
305 312 311 310 309 317 316 319 320 321 320 320 320 320 322 324 325 326 326 327 328 324 333 326 317 320 323 323 325 326 326 326 324 325 325 329 332 333 334 333 332 331 331 332 335
306 313 310 312 312 309 313 319 323 324 324 322 320 326 327 324 325 329 334 333 332 332 330 320 320 323 323 325 328 327 327 326 326 325 328 326 331 330 334 333 332 332 334 335 334
311 311 308 308 307 313 312 320 318 318 322 323 328 328 327 326 333 334 332 331 331 328 326 318 322 323 325 326 326 326 328 328 329 328 329 327 334 330 332 334 332 333 332 333 336
307 308 308 308 310 312 314 316 315 315 323 327 327 327 329 327 326 326 326 326 329 329 327 322 322 323 325 327 328 330 330 328 330 335 329 327 326 332 334 333 331 330 329 330 331

GFSSW_925_thetae_009.txt.gz
Theta_e
304 304 304 304 304 305 305 306 306 306 306 307 309 316 312 313 315 319 319 322 321 320 321 323 326 328 335 333 340 339 341 343 346 342 342 348 352 355 353 355 351 351 352 351 354
303 303 303 303 304 304 304 305 306 306 306 306 308 317 312 312 316 320 318 320 321 321 323 325 323 323 325 332 339 342 340 343 342 340 341 344 351 352 356 354 355 353 351 351 354
302 302 303 303 303 304 304 304 305 305 305 306 307 316 311 313 321 318 324 323 322 320 321 324 322 322 325 326 333 340 344 342 342 342 336 343 347 347 355 356 353 356 354 351 353
302 302 303 303 303 303 304 304 304 305 305 306 307 315 310 317 316 321 325 323 324 320 324 322 321 323 326 327 327 335 340 341 340 347 342 344 344 352 350 351 349 353 353 353 353
303 303 303 303 303 304 304 304 304 305 305 306 307 313 314 319 317 320 319 319 322 323 324 321 324 326 329 327 326 331 337 340 341 342 343 339 344 348 349 349 349 352 354 354 354
304 303 303 303 303 303 304 304 305 305 306 307 309 310 318 315 319 317 322 323 322 326 322 320 320 325 327 325 325 336 340 342 341 341 341 345 349 350 351 349 349 354 355 354 354
303 303 302 303 303 303 304 305 306 306 308 309 312 318 322 317 321 320 324 324 324 322 318 321 321 323 324 325 325 340 344 344 344 343 340 344 348 354 349 348 350 354 353 353 352
303 303 303 302 302 303 304 305 306 308 312 315 313 321 316 321 324 329 322 320 321 322 322 320 322 323 324 323 335 340 337 348 345 345 346 346 355 353 349 348 349 349 350 351 350
303 302 303 302 302 303 304 306 307 318 319 314 320 322 322 324 328 328 325 322 321 321 321 321 321 321 322 324 327 329 346 342 345 342 347 349 352 351 349 348 349 349 348 348 346
303 303 302 302 302 302 304 307 314 326 324 322 324 324 321 323 327 328 326 323 319 317 318 318 318 319 321 323 328 341 337 346 348 347 344 350 350 352 350 349 350 349 348 348 347
303 303 302 302 302 302 305 309 310 315 327 324 321 323 323 325 326 327 325 321 318 317 317 318 318 320 320 325 325 329 335 345 344 340 349 350 351 350 349 348 349 349 348 348 347
303 302 302 302 302 305 310 309 311 313 313 316 319 321 324 326 327 324 327 323 318 317 316 317 319 319 322 327 326 326 331 338 337 342 347 350 353 348 347 348 347 347 346 346 346
303 302 302 302 302 313 304 307 311 308 314 317 319 321 322 325 326 326 323 321 321 318 316 316 318 322 327 329 330 326 328 332 338 339 348 351 353 352 350 348 346 346 346 346 346
304 302 303 302 305 304 308 309 307 309 317 320 320 320 321 323 325 325 323 321 320 321 317 318 319 322 329 329 329 330 327 332 338 339 349 348 356 347 350 351 350 349 348 348 348
304 302 305 305 305 307 308 306 307 314 326 322 324 322 321 322 323 324 323 321 322 318 317 318 321 321 325 328 328 329 326 326 334 338 342 345 347 347 347 350 350 349 347 350 349
304 302 304 304 305 304 305 307 313 318 325 325 325 324 323 323 324 322 321 320 321 319 319 318 320 322 322 324 327 327 326 321 324 331 342 346 341 341 349 350 349 346 345 350 348
305 302 302 305 306 305 306 308 316 320 320 324 322 321 321 322 323 323 320 319 320 320 318 320 320 321 325 325 324 323 320 322 330 338 342 332 340 339 341 346 346 345 343 347 347
304 302 304 304 304 306 305 309 320 320 320 319 321 321 322 323 323 324 318 321 317 317 317 318 320 320 321 323 323 321 320 322 324 328 332 326 343 341 336 340 343 342 341 345 345
303 304 306 307 307 306 306 310 315 319 322 323 320 322 321 321 322 323 320 319 320 315 318 316 318 319 322 322 322 323 321 319 321 324 326 325 327 329 335 336 340 338 337 344 345
305 305 307 310 308 307 307 307 311 316 318 319 321 321 322 321 320 320 322 321 320 316 316 317 319 319 321 322 321 322 320 324 320 326 330 327 330 330 335 337 338 337 337 342 344
305 304 307 312 309 305 306 306 309 311 311 316 320 320 320 319 320 320 320 322 322 320 317 314 316 318 321 320 321 324 322 320 320 322 325 327 328 326 332 336 337 337 337 340 343
302 299 310 309 312 307 309 309 311 311 312 312 315 316 318 319 320 320 321 323 323 322 318 315 315 319 318 319 321 320 322 321 324 324 322 324 327 327 330 336 337 337 336 335 339
305 302 309 308 314 314 314 316 316 316 316 312 312 316 318 319 320 320 322 324 326 322 320 315 314 317 318 319 321 322 322 321 319 321 327 329 329 329 330 333 335 337 335 334 334
304 308 308 306 306 312 312 314 318 320 321 321 316 319 320 321 324 322 324 325 326 322 332 322 312 318 321 320 321 324 324 323 323 324 323 326 328 332 330 332 331 332 334 335 334
304 310 308 310 311 307 310 314 318 320 319 320 320 319 325 325 326 326 325 330 331 330 333 317 319 315 319 320 322 323 324 325 325 324 328 326 328 330 330 330 331 330 329 331 333
310 308 308 310 307 309 310 314 316 315 315 318 319 323 325 325 326 332 331 329 330 328 328 316 318 319 320 320 321 322 323 324 326 323 326 324 327 326 329 329 330 329 329 331 332
304 305 307 311 310 311 312 313 315 314 314 314 322 325 326 325 325 323 324 325 327 329 327 318 320 317 322 322 324 326 325 325 329 328 327 327 326 328 332 331 330 329 330 331 332

GFSSW_925_thetae_012.txt.gz
Theta_e
303 302 303 303 304 304 304 304 304 304 305 306 307 307 315 315 318 316 316 318 321 321 323 332 336 337 345 334 337 337 337 342 342 345 345 348 357 353 352 354 352 351 350 350 353
303 303 302 303 303 304 304 304 304 304 305 305 307 308 314 312 316 319 319 318 319 321 321 325 323 324 326 330 338 338 339 340 338 337 347 348 355 354 355 353 354 353 352 353 354
303 302 303 303 303 303 304 304 305 305 305 305 307 308 314 312 317 314 323 322 319 321 322 324 321 321 323 328 336 340 341 340 340 337 346 348 351 348 352 354 353 354 354 353 353
304 302 302 302 303 303 303 304 305 305 305 306 307 307 312 317 319 317 321 321 319 320 321 322 320 322 324 325 326 337 339 340 340 342 341 346 346 353 350 350 349 349 352 353 353
303 303 302 302 302 303 303 303 305 306 306 306 307 310 315 317 316 322 319 320 321 321 322 319 319 322 326 325 325 329 328 338 340 338 339 343 347 352 348 348 349 349 352 353 352
303 302 302 302 302 302 302 303 305 306 307 307 308 311 316 316 320 318 321 325 324 324 322 319 321 323 326 326 324 326 336 340 341 341 340 345 348 349 350 351 353 351 352 352 352
303 302 302 302 302 302 303 304 305 306 307 310 311 316 321 316 321 320 320 324 324 324 319 321 321 323 323 325 324 338 343 342 342 339 344 344 349 350 350 351 355 355 354 353 352
302 301 302 302 302 302 303 305 306 307 319 320 313 319 314 322 321 322 327 321 321 323 322 322 321 320 323 323 335 339 340 345 344 341 343 343 349 352 349 351 355 356 355 354 353
304 302 301 301 301 302 304 306 307 320 314 314 321 320 320 324 323 326 327 321 319 320 321 319 320 320 321 326 336 334 345 344 348 342 344 347 350 351 348 349 354 356 355 354 353
304 303 302 301 301 302 304 309 316 326 323 323 324 325 321 323 324 325 325 321 317 316 319 318 315 319 318 331 343 339 343 342 349 344 347 348 349 352 348 348 351 352 352 352 352
303 302 302 301 301 302 308 310 309 313 322 320 321 322 321 321 324 325 323 320 315 315 315 315 317 318 321 323 333 333 342 344 344 342 345 348 349 353 350 348 349 348 348 349 348
303 302 302 301 302 305 305 306 310 309 307 310 313 316 319 323 323 322 324 322 320 316 315 316 316 317 320 324 327 334 338 341 339 342 345 350 352 351 351 350 348 348 347 347 346
302 303 303 301 301 311 303 306 309 306 310 313 313 316 316 318 321 323 323 320 320 318 315 315 318 319 325 326 326 326 329 335 341 344 347 350 353 349 350 348 347 346 346 345 346
301 302 305 302 303 303 305 308 305 307 315 318 319 319 321 321 323 323 323 321 318 319 315 316 317 321 323 327 326 327 325 328 339 345 346 344 345 350 348 349 347 346 345 345 345
300 300 305 305 303 305 306 304 306 310 321 320 322 321 319 319 319 322 322 321 320 319 318 319 318 319 324 326 326 327 326 329 336 339 343 350 342 341 349 350 348 346 345 344 344
300 300 304 304 304 303 305 304 310 315 321 320 324 322 323 322 321 321 322 321 319 319 317 319 318 319 319 323 327 324 321 322 324 332 340 342 344 339 350 352 349 347 347 346 345
299 299 302 304 305 304 305 306 313 317 318 320 321 320 320 320 322 321 320 320 321 321 320 319 318 320 322 323 324 320 321 323 328 337 339 333 344 341 339 346 346 346 346 346 346
299 300 303 303 304 304 304 306 316 316 317 317 320 319 321 319 320 322 319 321 317 318 315 318 318 318 320 321 322 321 321 323 326 329 337 334 347 344 339 337 342 342 344 343 346
300 303 305 307 307 305 301 305 310 316 320 322 318 320 320 320 320 321 319 319 318 315 319 316 316 317 319 321 320 320 321 319 319 321 324 326 326 329 330 331 337 340 341 342 345
304 302 303 310 308 305 302 304 308 313 316 317 319 319 320 319 319 319 320 320 318 316 315 315 317 316 318 321 320 319 318 322 317 324 328 325 327 329 331 334 331 336 340 341 342
303 300 306 309 306 302 302 303 306 309 311 311 317 318 319 318 319 319 319 320 320 320 314 313 315 317 318 318 319 320 319 317 317 318 322 323 325 323 327 329 332 334 338 338 340
302 298 308 307 309 303 306 306 309 310 311 310 313 314 315 317 317 317 319 320 320 319 316 313 315 318 317 317 317 319 318 318 322 320 319 320 323 324 326 327 333 333 336 334 337
302 302 306 306 311 311 310 314 315 315 313 315 314 312 312 314 317 316 318 320 320 321 320 314 312 317 316 315 318 319 319 316 315 317 322 325 325 324 325 329 333 334 333 333 338
304 305 305 304 303 308 307 311 315 317 317 317 316 315 316 318 315 317 322 324 323 324 337 322 311 317 321 319 318 321 321 319 319 320 321 324 325 325 330 330 332 334 334 332 336
305 308 307 311 309 309 306 310 316 318 315 317 318 318 319 319 322 320 321 322 328 330 327 314 316 315 320 318 319 320 322 321 321 321 324 324 326 326 328 329 330 334 334 335 333
308 308 306 308 308 307 310 311 315 315 313 314 318 319 318 320 322 322 322 327 329 328 327 316 317 314 320 318 319 320 320 322 323 323 322 323 325 323 326 328 330 331 333 335 335
303 304 306 309 310 310 309 311 313 313 313 313 314 315 317 322 319 319 321 323 328 328 327 319 315 315 320 318 317 319 320 320 322 323 324 325 326 324 329 329 330 329 331 334 334